Time,TemperatureF,DewpointF,PressureIn,WindDirection,WindDirectionDegrees,WindSpeedMPH,WindSpeedGustMPH,Humidity,HourlyPrecipIn,Conditions,Clouds,dailyrainin,SoftwareType,DateUTC
2013-02-28 00:01:00,40.0,34.0,29.59,North,0,0.0,0.0,80,0.00,,,0.17,,2013-02-28 05:01:00,
2013-02-28 00:11:00,40.0,34.0,29.59,North,0,0.0,0.0,80,0.00,,,0.17,,2013-02-28 05:11:00,
2013-02-28 00:22:00,40.0,34.0,29.60,North,0,0.0,0.0,80,0.00,,,0.15,,2013-02-28 05:22:00,
2013-02-28 00:32:00,40.0,35.0,29.59,North,0,0.0,0.0,81,0.00,,,0.14,,2013-02-28 05:32:00,
2013-02-28 00:42:00,40.0,35.0,29.59,North,0,0.0,0.0,81,0.00,,,0.14,,2013-02-28 05:42:00,
2013-02-28 00:52:00,39.0,34.0,29.59,North,0,0.0,0.0,81,0.00,,,0.14,,2013-02-28 05:52:00,
2013-02-28 01:01:00,39.0,34.0,29.59,North,0,0.0,0.0,81,0.00,,,0.13,,2013-02-28 06:01:00,
2013-02-28 01:11:00,39.0,34.0,29.59,North,0,0.0,0.0,81,0.00,,,0.13,,2013-02-28 06:11:00,
2013-02-28 01:22:00,39.0,34.0,29.58,North,0,0.0,0.0,81,0.00,,,0.13,,2013-02-28 06:22:00,
2013-02-28 01:32:00,38.0,33.0,29.58,North,0,0.0,0.0,83,0.00,,,0.12,,2013-02-28 06:32:00,
2013-02-28 01:42:00,38.0,33.0,29.58,North,0,0.0,0.0,83,0.00,,,0.12,,2013-02-28 06:42:00,
2013-02-28 01:52:00,38.0,33.0,29.58,North,0,0.0,0.0,83,0.00,,,0.11,,2013-02-28 06:52:00,
2013-02-28 02:01:00,38.0,34.0,29.58,North,0,0.0,0.0,84,0.00,,,0.10,,2013-02-28 07:01:00,
2013-02-28 02:11:00,38.0,34.0,29.58,North,0,0.0,0.0,84,0.00,,,0.10,,2013-02-28 07:11:00,
2013-02-28 02:21:00,38.0,34.0,29.58,North,0,0.0,0.0,84,0.00,,,0.10,,2013-02-28 07:21:00,
2013-02-28 02:32:00,38.0,34.0,29.58,North,0,0.0,0.0,84,0.00,,,0.09,,2013-02-28 07:32:00,
2013-02-28 02:42:00,38.0,34.0,29.58,North,0,0.0,0.0,84,0.00,,,0.09,,2013-02-28 07:42:00,
2013-02-28 02:52:00,38.0,34.0,29.58,North,0,0.0,0.0,85,0.00,,,0.08,,2013-02-28 07:52:00,
2013-02-28 03:01:00,38.0,34.0,29.58,North,0,0.0,0.0,85,0.00,,,0.08,,2013-02-28 08:01:00,
2013-02-28 03:11:00,38.0,34.0,29.58,North,0,0.0,0.0,85,0.00,,,0.08,,2013-02-28 08:11:00,
2013-02-28 03:22:00,38.0,34.0,29.58,North,0,0.0,0.0,85,0.00,,,0.08,,2013-02-28 08:22:00,
2013-02-28 03:32:00,38.0,34.0,29.58,North,0,0.0,0.0,85,0.00,,,0.08,,2013-02-28 08:32:00,
2013-02-28 03:42:00,38.0,34.0,29.58,North,0,0.0,0.0,85,0.00,,,0.08,,2013-02-28 08:42:00,
2013-02-28 03:53:00,38.0,34.0,29.58,North,0,0.0,0.0,85,0.00,,,0.07,,2013-02-28 08:53:00,
2013-02-28 04:03:00,38.0,34.0,29.57,North,0,0.0,6.0,86,0.00,,,0.07,,2013-02-28 09:03:00,
2013-02-28 04:12:00,38.0,34.0,29.57,North,0,0.0,6.0,86,0.00,,,0.07,,2013-02-28 09:12:00,
2013-02-28 04:22:00,39.0,35.0,29.57,North,0,0.0,9.0,86,0.00,,,0.06,,2013-02-28 09:22:00,
2013-02-28 04:32:00,39.0,35.0,29.58,North,0,0.0,6.0,86,0.00,,,0.06,,2013-02-28 09:32:00,
2013-02-28 04:42:00,39.0,35.0,29.58,North,0,0.0,6.0,86,0.00,,,0.06,,2013-02-28 09:42:00,
2013-02-28 04:52:00,39.0,35.0,29.58,North,0,0.0,0.0,86,0.00,,,0.06,,2013-02-28 09:52:00,
2013-02-28 05:02:00,39.0,35.0,29.58,North,0,0.0,2.0,86,0.00,,,0.06,,2013-02-28 10:02:00,
2013-02-28 05:11:00,39.0,35.0,29.58,North,0,0.0,2.0,86,0.00,,,0.05,,2013-02-28 10:11:00,
2013-02-28 05:22:00,39.0,35.0,29.58,North,0,0.0,2.0,86,0.00,,,0.05,,2013-02-28 10:22:00,
2013-02-28 05:32:00,39.0,35.0,29.59,North,0,0.0,0.0,87,0.00,,,0.05,,2013-02-28 10:32:00,
2013-02-28 05:42:00,39.0,35.0,29.59,North,0,0.0,0.0,87,0.00,,,0.05,,2013-02-28 10:42:00,
2013-02-28 05:52:00,39.0,35.0,29.58,North,0,0.0,2.0,87,0.00,,,0.05,,2013-02-28 10:52:00,
2013-02-28 06:02:00,38.0,34.0,29.59,North,0,0.0,0.0,87,0.00,,,0.05,,2013-02-28 11:02:00,
2013-02-28 06:11:00,38.0,34.0,29.59,North,0,0.0,0.0,87,0.00,,,0.05,,2013-02-28 11:11:00,
2013-02-28 06:22:00,38.0,35.0,29.58,NNE,17,1.0,6.0,88,0.00,,,0.05,,2013-02-28 11:22:00,
2013-02-28 06:32:00,38.0,35.0,29.58,North,0,0.0,5.0,88,0.00,,,0.04,,2013-02-28 11:32:00,
2013-02-28 06:42:00,38.0,35.0,29.58,North,0,0.0,5.0,88,0.00,,,0.04,,2013-02-28 11:42:00,
2013-02-28 06:52:00,38.0,35.0,29.58,North,0,0.0,7.0,89,0.01,,,0.05,,2013-02-28 11:52:00,
2013-02-28 07:02:00,38.0,35.0,29.59,North,0,0.0,5.0,90,0.01,,,0.04,,2013-02-28 12:02:00,
2013-02-28 07:11:00,38.0,35.0,29.59,North,0,0.0,5.0,90,0.01,,,0.04,,2013-02-28 12:11:00,
2013-02-28 07:22:00,37.0,34.0,29.59,North,0,0.0,0.0,90,0.01,,,0.04,,2013-02-28 12:22:00,
2013-02-28 07:32:00,37.0,34.0,29.59,North,0,0.0,0.0,90,0.01,,,0.03,,2013-02-28 12:32:00,
2013-02-28 07:42:00,37.0,34.0,29.59,North,0,0.0,0.0,90,0.01,,,0.03,,2013-02-28 12:42:00,
2013-02-28 07:52:00,37.0,34.0,29.59,North,0,0.0,0.0,90,0.00,,,0.03,,2013-02-28 12:52:00,
2013-02-28 08:02:00,37.0,35.0,29.60,North,0,0.0,0.0,91,0.00,,,0.03,,2013-02-28 13:02:00,
2013-02-28 08:11:00,37.0,35.0,29.60,North,0,0.0,0.0,91,0.00,,,0.03,,2013-02-28 13:11:00,
2013-02-28 08:22:00,37.0,35.0,29.60,North,0,0.0,0.0,91,0.00,,,0.03,,2013-02-28 13:22:00,
2013-02-28 08:32:00,38.0,36.0,29.60,North,0,0.0,3.0,92,0.00,,,0.03,,2013-02-28 13:32:00,
2013-02-28 08:42:00,38.0,36.0,29.60,North,0,0.0,3.0,92,0.00,,,0.03,,2013-02-28 13:42:00,
2013-02-28 08:52:00,38.0,36.0,29.60,North,0,0.0,2.0,92,0.00,,,0.03,,2013-02-28 13:52:00,
2013-02-28 09:01:00,39.0,37.0,29.61,North,0,0.0,3.0,92,0.00,,,0.03,,2013-02-28 14:01:00,
2013-02-28 09:11:00,40.0,38.0,29.60,North,0,0.0,3.0,91,0.00,,,0.03,,2013-02-28 14:11:00,
2013-02-28 09:22:00,40.0,38.0,29.60,North,0,0.0,3.0,91,0.00,,,0.03,,2013-02-28 14:22:00,
2013-02-28 09:32:00,41.0,38.0,29.60,NNW,347,1.0,7.0,88,0.00,,,0.03,,2013-02-28 14:32:00,
2013-02-28 09:42:00,42.0,37.0,29.59,North,0,0.0,7.0,83,0.00,,,0.03,,2013-02-28 14:42:00,
2013-02-28 09:52:00,42.0,37.0,29.59,North,0,0.0,7.0,83,0.00,,,0.03,,2013-02-28 14:52:00,
2013-02-28 10:02:00,44.0,38.0,29.59,North,0,0.0,5.0,78,0.00,,,0.03,,2013-02-28 15:02:00,
2013-02-28 10:11:00,44.0,36.0,29.59,North,0,0.0,4.0,74,0.00,,,0.02,,2013-02-28 15:11:00,
2013-02-28 10:22:00,44.0,36.0,29.59,North,0,0.0,4.0,74,0.00,,,0.02,,2013-02-28 15:22:00,
2013-02-28 10:32:00,43.0,36.0,29.59,North,0,0.0,4.0,75,0.00,,,0.01,,2013-02-28 15:32:00,
2013-02-28 10:42:00,43.0,36.0,29.59,North,0,0.0,4.0,75,0.00,,,0.01,,2013-02-28 15:42:00,
2013-02-28 10:52:00,43.0,35.0,29.58,North,0,0.0,5.0,72,0.00,,,0.01,,2013-02-28 15:52:00,
2013-02-28 11:02:00,43.0,35.0,29.58,North,0,0.0,4.0,72,0.00,,,0.01,,2013-02-28 16:02:00,
2013-02-28 11:12:00,43.0,35.0,29.58,North,0,0.0,9.0,73,0.00,,,0.01,,2013-02-28 16:12:00,
2013-02-28 11:22:00,43.0,35.0,29.58,North,0,0.0,9.0,73,0.00,,,0.01,,2013-02-28 16:22:00,
2013-02-28 11:32:00,43.0,35.0,29.58,North,0,0.0,7.0,72,0.00,,,0.01,,2013-02-28 16:32:00,
2013-02-28 11:42:00,43.0,35.0,29.58,North,0,0.0,7.0,72,0.00,,,0.01,,2013-02-28 16:42:00,
2013-02-28 11:52:00,44.0,34.0,29.58,North,0,0.0,4.0,69,0.00,,,0.01,,2013-02-28 16:52:00,
2013-02-28 12:02:00,44.0,32.0,29.57,North,0,0.0,6.0,63,0.00,,,0.01,,2013-02-28 17:02:00,
2013-02-28 12:12:00,44.0,32.0,29.57,North,10,1.0,9.0,62,0.00,,,0.01,,2013-02-28 17:12:00,
2013-02-28 12:22:00,44.0,32.0,29.57,North,10,1.0,9.0,62,0.00,,,0.01,,2013-02-28 17:22:00,
2013-02-28 12:32:00,44.0,32.0,29.57,North,0,0.0,8.0,62,0.00,,,0.01,,2013-02-28 17:32:00,
2013-02-28 12:42:00,44.0,32.0,29.57,North,0,0.0,8.0,62,0.00,,,0.01,,2013-02-28 17:42:00,
2013-02-28 12:53:00,44.0,32.0,29.56,North,0,0.0,7.0,62,0.00,,,0.01,,2013-02-28 17:53:00,
2013-02-28 13:02:00,43.0,29.0,29.56,North,0,0.0,9.0,57,0.00,,,0.01,,2013-02-28 18:02:00,
2013-02-28 13:11:00,43.0,30.0,29.56,North,5,1.0,6.0,60,0.00,,,0.01,,2013-02-28 18:11:00,
2013-02-28 13:22:00,43.0,30.0,29.56,North,5,1.0,6.0,60,0.00,,,0.01,,2013-02-28 18:22:00,
2013-02-28 13:32:00,42.0,30.0,29.56,North,0,0.0,7.0,61,0.00,,,0.01,,2013-02-28 18:32:00,
2013-02-28 13:42:00,42.0,30.0,29.56,North,0,0.0,12.0,62,0.00,,,0.01,,2013-02-28 18:42:00,
2013-02-28 13:52:00,42.0,30.0,29.56,North,0,0.0,12.0,62,0.00,,,0.01,,2013-02-28 18:52:00,
2013-02-28 14:02:00,43.0,30.0,29.56,North,0,0.0,6.0,61,0.00,,,0.01,,2013-02-28 19:02:00,
2013-02-28 14:11:00,43.0,31.0,29.56,North,0,0.0,13.0,63,0.00,,,0.01,,2013-02-28 19:11:00,
2013-02-28 14:22:00,43.0,31.0,29.56,North,0,0.0,13.0,63,0.00,,,0.01,,2013-02-28 19:22:00,
2013-02-28 14:32:00,42.0,31.0,29.56,North,350,1.0,6.0,66,0.00,,,0.01,,2013-02-28 19:32:00,
2013-02-28 14:42:00,42.0,31.0,29.56,North,350,1.0,6.0,66,0.00,,,0.01,,2013-02-28 19:42:00,
2013-02-28 14:52:00,42.0,32.0,29.56,North,0,0.0,7.0,68,0.00,,,0.01,,2013-02-28 19:52:00,
2013-02-28 15:01:00,42.0,32.0,29.56,North,0,0.0,3.0,68,0.00,,,0.01,,2013-02-28 20:01:00,
2013-02-28 15:12:00,43.0,33.0,29.56,North,0,0.0,8.0,68,0.00,,,0.01,,2013-02-28 20:12:00,
2013-02-28 15:22:00,43.0,33.0,29.56,North,0,0.0,8.0,68,0.00,,,0.01,,2013-02-28 20:22:00,
2013-02-28 15:32:00,43.0,32.0,29.55,North,352,2.0,9.0,64,0.00,,,0.01,,2013-02-28 20:32:00,
2013-02-28 15:42:00,43.0,32.0,29.55,North,352,2.0,9.0,64,0.00,,,0.01,,2013-02-28 20:42:00,
2013-02-28 15:52:00,43.0,32.0,29.55,North,0,0.0,7.0,64,0.00,,,0.01,,2013-02-28 20:52:00,
2013-02-28 16:02:00,42.0,33.0,29.55,North,0,0.0,8.0,69,0.00,,,0.01,,2013-02-28 21:02:00,
2013-02-28 16:11:00,42.0,33.0,29.55,North,0,0.0,8.0,69,0.00,,,0.01,,2013-02-28 21:11:00,
2013-02-28 16:22:00,42.0,31.0,29.55,North,11,1.0,6.0,66,0.00,,,0.01,,2013-02-28 21:22:00,
2013-02-28 16:32:00,42.0,31.0,29.55,NNE,17,1.0,11.0,66,0.00,,,0.01,,2013-02-28 21:32:00,
2013-02-28 16:42:00,42.0,31.0,29.55,NNE,17,1.0,11.0,66,0.00,,,0.01,,2013-02-28 21:42:00,
2013-02-28 16:52:00,42.0,32.0,29.55,North,0,0.0,6.0,68,0.00,,,0.01,,2013-02-28 21:52:00,
2013-02-28 17:01:00,42.0,32.0,29.56,North,0,0.0,7.0,67,0.00,,,0.01,,2013-02-28 22:01:00,
2013-02-28 17:11:00,41.0,31.0,29.56,North,0,0.0,6.0,68,0.00,,,0.01,,2013-02-28 22:11:00,
2013-02-28 17:22:00,41.0,31.0,29.56,North,0,0.0,6.0,68,0.00,,,0.01,,2013-02-28 22:22:00,
2013-02-28 17:32:00,41.0,32.0,29.57,North,0,0.0,3.0,69,0.00,,,0.01,,2013-02-28 22:32:00,
2013-02-28 17:42:00,41.0,32.0,29.57,North,0,0.0,3.0,69,0.00,,,0.01,,2013-02-28 22:42:00,
2013-02-28 17:52:00,40.0,31.0,29.57,North,0,0.0,7.0,70,0.00,,,0.01,,2013-02-28 22:52:00,
2013-02-28 18:01:00,40.0,32.0,29.58,North,0,0.0,12.0,72,0.00,,,0.01,,2013-02-28 23:01:00,
2013-02-28 18:11:00,39.0,31.0,29.58,North,0,0.0,10.0,72,0.00,,,0.01,,2013-02-28 23:11:00,
2013-02-28 18:22:00,39.0,31.0,29.58,North,0,0.0,10.0,72,0.00,,,0.01,,2013-02-28 23:22:00,
2013-02-28 18:32:00,39.0,31.0,29.59,NW,326,1.0,7.0,74,0.00,,,0.01,,2013-02-28 23:32:00,
2013-02-28 18:42:00,39.0,31.0,29.59,NW,326,1.0,7.0,74,0.00,,,0.01,,2013-02-28 23:42:00,
2013-02-28 18:53:00,38.0,31.0,29.59,NNW,339,1.0,9.0,76,0.00,,,0.01,,2013-02-28 23:53:00,
2013-02-28 19:02:00,38.0,32.0,29.60,North,352,2.0,10.0,78,0.00,,,0.01,,2013-03-01 00:02:00,
2013-02-28 19:11:00,38.0,32.0,29.60,North,352,2.0,10.0,78,0.00,,,0.01,,2013-03-01 00:11:00,
2013-02-28 19:22:00,37.0,31.0,29.60,North,0,0.0,11.0,80,0.00,,,0.01,,2013-03-01 00:22:00,
2013-02-28 19:32:00,37.0,32.0,29.61,North,0,0.0,4.0,81,0.00,,,0.01,,2013-03-01 00:32:00,
2013-02-28 19:42:00,37.0,32.0,29.61,North,0,0.0,4.0,81,0.00,,,0.01,,2013-03-01 00:42:00,
2013-02-28 19:52:00,37.0,32.0,29.61,North,0,0.0,5.0,81,0.00,,,0.01,,2013-03-01 00:52:00,
2013-02-28 20:01:00,37.0,31.0,29.61,North,0,0.0,5.0,80,0.00,,,0.01,,2013-03-01 01:01:00,
2013-02-28 20:11:00,37.0,31.0,29.62,North,0,0.0,4.0,80,0.00,,,0.01,,2013-03-01 01:11:00,
2013-02-28 20:21:00,37.0,31.0,29.62,North,0,0.0,4.0,80,0.00,,,0.01,,2013-03-01 01:21:00,
2013-02-28 20:32:00,37.0,32.0,29.62,North,0,0.0,5.0,81,0.00,,,0.01,,2013-03-01 01:32:00,
2013-02-28 20:42:00,37.0,32.0,29.62,North,0,0.0,5.0,81,0.00,,,0.01,,2013-03-01 01:42:00,
2013-02-28 20:52:00,36.0,31.0,29.63,North,353,1.0,7.0,82,0.00,,,0.01,,2013-03-01 01:52:00,
2013-02-28 21:01:00,36.0,31.0,29.63,North,0,0.0,9.0,83,0.00,,,0.01,,2013-03-01 02:01:00,
2013-02-28 21:11:00,36.0,32.0,29.63,North,0,0.0,4.0,84,0.00,,,0.01,,2013-03-01 02:11:00,
2013-02-28 21:21:00,36.0,32.0,29.63,North,0,0.0,4.0,84,0.00,,,0.01,,2013-03-01 02:21:00,
2013-02-28 21:32:00,36.0,32.0,29.63,NNE,22,1.0,6.0,84,0.00,,,0.01,,2013-03-01 02:32:00,
2013-02-28 21:42:00,36.0,32.0,29.63,NNE,22,1.0,6.0,84,0.00,,,0.01,,2013-03-01 02:42:00,
2013-02-28 21:52:00,36.0,32.0,29.64,North,0,0.0,5.0,84,0.00,,,0.01,,2013-03-01 02:52:00,
2013-02-28 22:02:00,36.0,32.0,29.63,North,0,0.0,2.0,84,0.00,,,0.01,,2013-03-01 03:02:00,
2013-02-28 22:11:00,35.0,31.0,29.63,North,0,0.0,4.0,84,0.00,,,0.01,,2013-03-01 03:11:00,
2013-02-28 22:21:00,35.0,31.0,29.63,North,0,0.0,4.0,84,0.00,,,0.01,,2013-03-01 03:21:00,
2013-02-28 22:32:00,35.0,30.0,29.63,North,0,0.0,2.0,83,0.00,,,0.01,,2013-03-01 03:32:00,
2013-02-28 22:42:00,35.0,30.0,29.63,North,0,0.0,2.0,83,0.00,,,0.01,,2013-03-01 03:42:00,
2013-02-28 22:52:00,34.0,30.0,29.63,North,0,0.0,4.0,84,0.00,,,0.01,,2013-03-01 03:52:00,
2013-02-28 23:01:00,34.0,30.0,29.62,North,0,0.0,0.0,84,0.00,,,0.01,,2013-03-01 04:01:00,
2013-02-28 23:11:00,34.0,30.0,29.62,North,0,0.0,0.0,84,0.00,,,0.01,,2013-03-01 04:11:00,
2013-02-28 23:21:00,34.0,30.0,29.62,North,0,0.0,4.0,85,0.00,,,0.01,,2013-03-01 04:21:00,
2013-02-28 23:32:00,34.0,30.0,29.62,North,0,0.0,5.0,85,0.00,,,0.01,,2013-03-01 04:32:00,
2013-02-28 23:42:00,34.0,30.0,29.62,North,0,0.0,5.0,85,0.00,,,0.01,,2013-03-01 04:42:00,
2013-02-28 23:52:00,34.0,30.0,29.62,North,0,0.0,6.0,85,0.00,,,0.01,,2013-03-01 04:52:00,